World > North America > United States > Illinois > Little Indian

Hourly Little Indian, IL Regional Weather

Feedback E-mail the Weather

Quick WX

Little Indian, IL Weather Maps

°F °C°F °C
Little Indian Weather Map
UTC Time: 8/10/2022, 19:44
Your Time:

Little Indian, IL Regional Weather

Expires:202208102000;;805903
ASUS43 KLOT 101909
RWRIL 

ILLINOIS REGIONAL WEATHER ROUNDUP
NATIONAL WEATHER SERVICE CHICAGO/ROMEOVILLE IL
200 PM CDT WED AUG 10 2022

NOTE: "FAIR" INDICATES FEW OR NO CLOUDS BELOW 12,000 FEET WITH NO
SIGNIFICANT WEATHER AND/OR OBSTRUCTIONS TO VISIBILITY.

* THESE STATIONS ARE NOT UNDER NWS QUALITY CONTROL. THEY ALSO MAY NOT
  REPORT WEATHER SUCH AS PRECIPITATION OR FOG.


ILZ025>027-034>036-040-047-049-050-058-095>099-102000-
WEST-CENTRAL ILLINOIS
  
CITY           SKY/WX    TMP DP  RH WIND       PRES   REMARKS
QUINCY         SUNNY     80  61  52 VRB5      30.17F HX  81           
GALESBURG*     MOSUNNY   78  63  59 CALM      30.20F HX  80           
MACOMB*        SUNNY     79  60  51 N3        30.20F HX  80           
JACKSONVILLE*  SUNNY     79  60  53 NE8       30.17F HX  80           
PITTSFIELD*    MOSUNNY   80  63  56 N3        30.19F HX  81           
$$


SKY/WX - Weather  TMP - Temperature  DP - Dew Point  RH - Humidity
WIND - Wind Direction/Speed PRES - Barometric Pressure VSB - Visibility
WCI - Wind Chill Index E13G22 Wind - East Wind 13 mph/Gusts of 22 mph

Trending Headlines

Little Indian Radar Loop



Little Indian Quick Facts


National Two Day Weather Forecast


E-mail the Little Indian Weather Forecast

Voice your opinion or tell us about page issues...